Hourly Data Report for September 05, 2020

SHEARWATER RCS
NOVA SCOTIA
Current Station Operator: ECCC - MSC

44°37'47.000" N
63°30'48.000" W
24.00 m
8205092
71264
AAW

Download Data

Hourly Data (September 2020)
Hourly Data Report for September 5, 2020
TIME Temp Definition
°C
Dew Point Definition
°C
Rel Hum Definition
%
Wind Dir Definition
10's deg

Wind Spd Definition
km/h
Visibility Definition
km
Stn Press Definition
kPa
Hmdx Definition


Wind Chill Definition


Weather Definition


00:00 17.8 17.1 96   0   100.78     LegendNANA
01:00 17.6 17.0 96 29 4   100.81     LegendNANA
02:00 18.3 17.7 96 30 9   100.83     LegendNANA
03:00 18.2 17.4 95 31 13   100.85     LegendNANA
04:00 17.1 15.5 90 32 13   100.92     LegendNANA
05:00 15.8 13.5 86 33 9   101.00     LegendNANA
06:00 15.2 12.6 85 31 10   101.08     LegendNANA
07:00 16.1 12.6 80 30 7   101.16     LegendNANA
08:00 17.8 11.8 68 30 6   101.24     LegendNANA
09:00 19.3 10.8 58 27 6   101.29     LegendNANA
10:00 21.1 8.9 46 29 8   101.30     LegendNANA
11:00 22.7 9.6 43 24 8   101.31     LegendNANA
12:00 23.2 9.6 42 22 11   101.29     LegendNANA
13:00 23.8 9.7 41 26 14   101.28 25   LegendNANA
14:00 23.8 10.0 42 24 16   101.30 25   LegendNANA
15:00 22.9 10.6 46 21 20   101.33     LegendNANA
16:00 21.9 11.3 51 22 21   101.35     LegendNANA
17:00 21.3 11.8 55 22 13   101.37     LegendNANA
18:00 19.4 11.3 59 22 15   101.41     LegendNANA
19:00 17.0 11.7 71 27 3   101.48     LegendNANA
20:00 16.1 11.7 75 30 4   101.56     LegendNANA
21:00 14.6 11.3 81 33 4   101.60     LegendNANA
22:00 15.1 9.2 67 33 7   101.64     LegendNANA
23:00 14.6 8.3 66 31 9   101.68     LegendNANA

Notes on Data Quality.

Legend

  • E = Estimated
  • M = Missing
  • NA = Not Available*
  • [empty] = Indicates an unobserved value
Date modified: